TimeMST,TemperatureF,Dew PointF,Humidity,Sea Level PressureIn,VisibilityMPH,Wind Direction,Wind SpeedMPH,Gust SpeedMPH,PrecipitationIn,Events,Conditions,WindDirDegrees,DateUTC
12:15 AM,19.4,12.2,74,30.24,-9999.0,Calm,Calm,-,N/A,,Clear,0,2012-11-30 07:15:00
12:35 AM,19.4,12.2,74,30.24,-9999.0,Calm,Calm,-,N/A,,Clear,0,2012-11-30 07:35:00
12:54 AM,19.4,14.0,80,30.22,-9999.0,Calm,Calm,-,N/A,,Clear,0,2012-11-30 07:54:00
1:15 AM,19.4,12.2,74,30.22,-9999.0,Calm,Calm,-,N/A,,Clear,0,2012-11-30 08:15:00
1:34 AM,17.6,12.2,79,30.22,-9999.0,Calm,Calm,-,N/A,,Clear,0,2012-11-30 08:34:00
1:54 AM,17.6,12.2,79,30.23,-9999.0,Calm,Calm,-,N/A,,Clear,0,2012-11-30 08:54:00
2:15 AM,17.6,12.2,79,30.23,-9999.0,Calm,Calm,-,N/A,,Clear,0,2012-11-30 09:15:00
2:35 AM,17.6,12.2,79,30.23,-9999.0,Calm,Calm,-,N/A,,Clear,0,2012-11-30 09:35:00
2:54 AM,17.6,10.4,73,30.22,-9999.0,Calm,Calm,-,N/A,,Clear,0,2012-11-30 09:54:00
3:15 AM,17.6,12.2,79,30.22,-9999.0,Calm,Calm,-,N/A,,Clear,0,2012-11-30 10:15:00
3:35 AM,17.6,12.2,79,30.22,-9999.0,Calm,Calm,-,N/A,,Clear,0,2012-11-30 10:35:00
3:55 AM,17.6,12.2,79,30.22,-9999.0,Calm,Calm,-,N/A,,Clear,0,2012-11-30 10:55:00
4:15 AM,17.6,10.4,73,30.21,-9999.0,East,3.5,-,N/A,,Mostly Cloudy,90,2012-11-30 11:15:00
4:35 AM,17.6,12.2,79,30.20,-9999.0,Calm,Calm,-,N/A,,Overcast,0,2012-11-30 11:35:00
5:15 AM,17.6,12.2,79,30.19,-9999.0,Calm,Calm,-,N/A,,Mostly Cloudy,0,2012-11-30 12:15:00
5:35 AM,14.0,10.4,86,30.19,-9999.0,Calm,Calm,-,N/A,,Unknown,0,2012-11-30 12:35:00
5:55 AM,15.8,10.4,79,30.19,-9999.0,Calm,Calm,-,N/A,,Clear,0,2012-11-30 12:55:00
6:15 AM,15.8,10.4,79,30.19,-9999.0,Calm,Calm,-,N/A,,Scattered Clouds,0,2012-11-30 13:15:00
6:34 AM,15.8,12.2,86,30.20,-9999.0,West,4.6,-,N/A,,Unknown,270,2012-11-30 13:34:00
6:55 AM,15.8,12.2,86,30.20,-9999.0,Calm,Calm,-,N/A,,Unknown,0,2012-11-30 13:55:00
7:15 AM,14.0,10.4,86,30.20,-9999.0,Calm,Calm,-,N/A,,Unknown,0,2012-11-30 14:15:00
7:35 AM,15.8,10.4,79,30.20,-9999.0,Calm,Calm,-,N/A,,Clear,0,2012-11-30 14:35:00
7:55 AM,17.6,12.2,79,30.19,-9999.0,Calm,Calm,-,N/A,,Clear,0,2012-11-30 14:55:00
8:14 AM,17.6,12.2,79,30.20,-9999.0,Calm,Calm,-,N/A,,Clear,0,2012-11-30 15:14:00
8:35 AM,19.4,14.0,80,30.20,-9999.0,Calm,Calm,-,N/A,,Clear,0,2012-11-30 15:35:00
8:55 AM,23.0,15.8,74,30.20,-9999.0,Calm,Calm,-,N/A,,Clear,0,2012-11-30 15:55:00
9:15 AM,26.6,17.6,69,30.19,-9999.0,Calm,Calm,-,N/A,,Clear,0,2012-11-30 16:15:00
9:35 AM,30.2,19.4,64,30.18,-9999.0,Calm,Calm,-,N/A,,Clear,0,2012-11-30 16:35:00
9:55 AM,32.0,17.6,55,30.18,-9999.0,Calm,Calm,-,N/A,,Clear,0,2012-11-30 16:55:00
10:14 AM,33.8,19.4,56,30.16,-9999.0,Calm,Calm,-,N/A,,Clear,0,2012-11-30 17:14:00
10:35 AM,33.8,17.6,52,30.16,-9999.0,Calm,Calm,-,N/A,,Clear,0,2012-11-30 17:35:00
10:55 AM,35.6,19.4,52,30.14,-9999.0,Calm,Calm,-,N/A,,Clear,0,2012-11-30 17:55:00
11:15 AM,41.0,19.4,42,30.12,-9999.0,ENE,5.8,-,N/A,,Clear,70,2012-11-30 18:15:00
11:35 AM,44.6,19.4,37,30.11,-9999.0,NE,4.6,-,N/A,,Clear,50,2012-11-30 18:35:00
11:55 AM,48.2,21.2,34,30.09,-9999.0,Calm,Calm,-,N/A,,Clear,0,2012-11-30 18:55:00
12:15 PM,50.0,21.2,32,30.08,-9999.0,West,6.9,-,N/A,,Clear,280,2012-11-30 19:15:00
12:35 PM,50.0,19.4,30,30.07,-9999.0,South,4.6,-,N/A,,Clear,180,2012-11-30 19:35:00
12:55 PM,50.0,19.4,30,30.06,-9999.0,Calm,Calm,-,N/A,,Clear,0,2012-11-30 19:55:00
1:15 PM,51.8,19.4,28,30.05,-9999.0,SE,4.6,-,N/A,,Clear,140,2012-11-30 20:15:00
1:34 PM,53.6,19.4,26,30.06,-9999.0,West,9.2,16.1,N/A,,Clear,270,2012-11-30 20:34:00
1:55 PM,51.8,17.6,26,30.06,-9999.0,West,8.1,-,N/A,,Clear,260,2012-11-30 20:55:00
2:15 PM,51.8,17.6,26,30.06,-9999.0,West,6.9,-,N/A,,Clear,260,2012-11-30 21:15:00
2:35 PM,51.8,17.6,26,30.04,-9999.0,Calm,Calm,-,N/A,,Clear,0,2012-11-30 21:35:00
2:55 PM,50.0,17.6,28,30.02,-9999.0,East,8.1,-,N/A,,Clear,100,2012-11-30 21:55:00
3:15 PM,50.0,17.6,28,30.03,-9999.0,NE,6.9,-,N/A,,Scattered Clouds,40,2012-11-30 22:15:00
3:35 PM,50.0,17.6,28,30.04,-9999.0,ESE,9.2,-,N/A,,Scattered Clouds,110,2012-11-30 22:35:00
3:55 PM,50.0,17.6,28,30.04,-9999.0,SE,3.5,-,N/A,,Scattered Clouds,140,2012-11-30 22:55:00
4:15 PM,50.0,17.6,28,30.04,-9999.0,Calm,Calm,-,N/A,,Scattered Clouds,0,2012-11-30 23:15:00
4:35 PM,46.4,17.6,32,30.04,-9999.0,SE,8.1,-,N/A,,Scattered Clouds,130,2012-11-30 23:35:00
4:55 PM,46.4,17.6,32,30.04,-9999.0,ESE,11.5,-,N/A,,Clear,110,2012-11-30 23:55:00
5:14 PM,46.4,17.6,32,30.04,-9999.0,ESE,5.8,16.1,N/A,,Clear,110,2012-12-01 00:14:00
5:35 PM,44.6,15.8,31,30.04,-9999.0,East,3.5,-,N/A,,Clear,90,2012-12-01 00:35:00
5:55 PM,42.8,17.6,36,30.05,-9999.0,North,3.5,-,N/A,,Clear,360,2012-12-01 00:55:00
6:15 PM,48.2,17.6,30,30.05,-9999.0,South,4.6,16.1,N/A,,Scattered Clouds,190,2012-12-01 01:15:00
6:35 PM,44.6,17.6,34,30.05,-9999.0,Calm,Calm,-,N/A,,Scattered Clouds,0,2012-12-01 01:35:00
7:15 PM,42.8,17.6,36,30.05,-9999.0,SSE,3.5,-,N/A,,Clear,150,2012-12-01 02:15:00
7:35 PM,42.8,17.6,36,30.04,-9999.0,SSE,5.8,-,N/A,,Clear,160,2012-12-01 02:35:00
8:15 PM,42.8,17.6,36,30.04,-9999.0,ESE,3.5,-,N/A,,Clear,120,2012-12-01 03:15:00
8:35 PM,41.0,17.6,39,30.04,-9999.0,ESE,8.1,-,N/A,,Clear,110,2012-12-01 03:35:00
8:54 PM,42.8,17.6,36,30.04,-9999.0,SSE,4.6,-,N/A,,Clear,150,2012-12-01 03:54:00
9:15 PM,41.0,17.6,39,30.04,-9999.0,East,9.2,-,N/A,,Clear,100,2012-12-01 04:15:00
9:35 PM,41.0,17.6,39,30.04,-9999.0,ESE,6.9,-,N/A,,Clear,120,2012-12-01 04:35:00
9:55 PM,41.0,17.6,39,30.04,-9999.0,East,6.9,-,N/A,,Scattered Clouds,100,2012-12-01 04:55:00
10:15 PM,41.0,17.6,39,30.04,-9999.0,ESE,6.9,-,N/A,,Scattered Clouds,110,2012-12-01 05:15:00
10:34 PM,39.2,17.6,42,30.05,-9999.0,East,4.6,-,N/A,,Mostly Cloudy,100,2012-12-01 05:34:00
10:55 PM,41.0,17.6,39,30.06,-9999.0,NNW,4.6,-,N/A,,Mostly Cloudy,340,2012-12-01 05:55:00
11:15 PM,42.8,19.4,39,30.06,-9999.0,West,19.6,26.5,N/A,,Mostly Cloudy,270,2012-12-01 06:15:00
11:35 PM,41.0,23.0,49,30.06,-9999.0,WNW,6.9,-,N/A,,Scattered Clouds,290,2012-12-01 06:35:00
11:55 PM,41.0,21.2,45,30.06,-9999.0,NE,3.5,-,N/A,,Mostly Cloudy,50,2012-12-01 06:55:00